Regional Weather Roundup
Issued by NWS

Home | Current Version | Previous Version | Text Only | Print | Product List | Glossary On
Versions: 1 2 3 4 5 6 7 8 9 10 11 12 13 14 15 16 17 18 19 20 21 22 23 24 25 26 27 28 29 30 31 32 33 34 35 36 37 38 39 40 41 42 43 44 45 46 47 48 49 50
000
ASUS43 KMPX 271301
RWRMN
WEATHER ROUNDUP FOR MINNESOTA
NATIONAL WEATHER SERVICE TWIN CITIES/CHANHASSEN MN
700 AM CST TUE JAN 27 2015


NOTE: "FAIR" INDICATES FEW OR NO CLOUDS BELOW 12,000 FEET WITH NO
SIGNIFICANT WEATHER AND/OR OBSTRUCTIONS TO VISIBILITY. N/A MEANS
CURRENT SKY AND/OR WEATHER CONDITIONS ARE NOT AVAILABLE.

MNZ060>063-068>070-271400-
   Twin Cities Metro

CITY           SKY/WX    TMP DP  RH WIND       PRES   REMARKS
TWIN CITIES    CLOUDY    33  25  72 NE5       30.12R WCI  29
ST PAUL        CLOUDY    32  25  75 NE10      30.14R WCI  24
CRYSTAL        CLOUDY    34  26  72 E5        30.11R WCI  30
BLAINE         CLOUDY    34  28  80 E5        30.12R WCI  30
LAKEVILLE        N/A     30  27  86 CALM      30.11R
EDEN PRAIRIE   CLOUDY    33  24  69 CALM      30.11R
SOUTH ST PAUL  CLOUDY    33  26  75 CALM      30.12R
LAKE ELMO      CLOUDY    32  27  80 N6        30.13R WCI  26
$$
MNZ001>005-007-008-013>017-022>024-027-028-271400-
   Northwest Minnesota

CITY           SKY/WX    TMP DP  RH WIND       PRES   REMARKS
BEMIDJI        CLOUDY    24  24  97 S6        30.06R FOG     WCI  17
HALLOCK        FOG       25  23  93 S10       30.01S VSB 1   WCI  15
ROSEAU         CLOUDY    23  18  80 S6        30.03F HAZE    WCI  16
WARROAD        CLOUDY    21  18  86 SE8       30.03F FOG     WCI  12
THIEF RVR FALL CLOUDY    25  25 100 S8        30.05S VSB 3/4 WCI  16
CROOKSTON      FOG       25  25 100 S9        30.06F VSB 1/2 WCI  15
FOSSTON        CLOUDY    21  21 100 SE6       30.06R FOG     WCI  14
DETROIT LAKES  FOG       27  27 100 S9        30.06S VSB 1/2 WCI  17
MOORHEAD       FOG       27  27 100 S7        30.07F VSB 3/4 WCI  19
PARK RAPIDS    CLOUDY    27  25  92 SE8       30.07R WCI  19
MAHNOMEN       CLOUDY    24  23  96 S6        30.05S FOG     WCI  16
$$
MNZ006-009>011-018-025>026-271400-
   North Central Minnesota

CITY           SKY/WX    TMP DP  RH WIND       PRES   REMARKS
BAUDETTE       CLOUDY    23  21  92 S8        30.05R WCI  14
FLAG ISLAND    CLOUDY    21  19  93 S10       30.02F FOG     WCI  10
INTL FALLS     CLOUDY    22  19  89 SW5       30.07R WCI  16
WASKISH        CLOUDY    25  25 100 CALM      30.07R
BIG FORK       CLOUDY    27  21  80 CALM      30.07S
LONGVILLE      CLOUDY    27  25  93 CALM      30.08S
GRAND RAPIDS   CLOUDY    25  19  80 CALM      30.07S
CRANE LAKE     CLOUDY    23  21  93 CALM      30.10R FOG
ORR            CLOUDY    23  19  86 CALM      30.05S
COOK           CLOUDY    23  21  93 SW3       30.09R
WALKER         CLOUDY    26  24  90 S3        30.07S
$$
MNZ012-019>021-037-271400-
   Northeast Minnesota

CITY           SKY/WX    TMP DP  RH WIND       PRES   REMARKS
DULUTH         CLOUDY    25  21  85 CALM      30.08R
ELY            CLOUDY    21  21 100 CALM      30.07R
HIBBING        CLOUDY    25  21  85 CALM      30.08R
EVELETH        CLOUDY    25  23  93 CALM      30.09R
DULUTH HARBOR  CLOUDY    28  25  86 CALM      30.14R
TWO HARBORS    CLOUDY    27  21  80 CALM      30.09R
SILVER BAY     CLOUDY    25  21  86 CALM      30.08R
GRAND MARAIS     N/A     24  19  81 N5        30.12R WCI  18
G MARAIS ARPRT CLOUDY    16  12  86 CALM      30.06R
$$
MNZ029>031-032-039>041-046>048-054>057-064-271400-
   West Central Minnesota

CITY           SKY/WX    TMP DP  RH WIND       PRES   REMARKS
FERGUS FALLS   FOG       27  27 100 S8        30.10S VSB 3/4 WCI  18
WHEATON        CLOUDY    25  25 100 SE9       30.10R FOG     WCI  15
MORRIS         CLOUDY    28  28 100 SE8       30.08R FOG     WCI  20
ALEXANDRIA     CLOUDY    28  26  92 SE6       30.09R WCI  22
ELBOW LAKE     CLOUDY    26  26  99 SE8       30.07R FOG     WCI  18
WADENA         CLOUDY    25  25 100 SE5       30.08R WCI  19
GLENWOOD       CLOUDY    28  27  93 CALM      30.09R
APPLETON       CLOUDY    30  28  93 SE7       30.10R FOG     WCI  23
BENSON         CLOUDY    28  27  93 S3        30.10R
ORTONVILLE     FOG       27  27 100 SE6       30.08S VSB 1/4 WCI  20
MADISON        FOG       32  30  93 S3        30.09S VSB 1/2
WILLMAR        CLOUDY    32  28  86 SE5       30.11R WCI  27
$$
MNZ033>034-036-042>043-049>051-058-059-271400-
   Central Minnesota

CITY           SKY/WX    TMP DP  RH WIND       PRES   REMARKS
ST CLOUD       CLOUDY    31  25  78 E3        30.10R
SAUK CENTRE    CLOUDY    29  26  91 CALM      30.10R
PAYNESVILLE    CLOUDY    28  26  92 NE6       30.11R WCI  21
AITKIN         CLOUDY    30  25  80 CALM      30.08R
PINE RIVER     CLOUDY    28  25  86 S3        30.11S
BRAINERD       CLOUDY    29  25  85 SE5       30.09R WCI  24
STAPLES        CLOUDY    27  25  93 CALM      30.09R
LONG PRAIRIE   CLOUDY    28  27  93 E5        30.09R WCI  23
LITTLE FALLS   CLOUDY    30  27  86 CALM      30.10R
LITCHFIELD     CLOUDY    32  28  86 CALM      30.11R
BUFFALO        CLOUDY    32  26  78 E3        30.12R
MAPLE LAKE     CLOUDY    32  28  85 CALM      30.12R
$$
MNZ037-044-045-052-053-271400-
   East Central Minnesota

CITY           SKY/WX    TMP DP  RH WIND       PRES   REMARKS
PRINCETON      CLOUDY    32  27  80 CALM      30.12R
MORA           CLOUDY    30  25  80 CALM      30.13R
CAMBRIDGE      CLOUDY    34  23  64 CALM      30.10R
RUSH CITY      CLOUDY    30  24  79 CALM      30.12R
MOOSE LAKE     CLOUDY    28  23  80 CALM      30.09R
HINCKLEY       CLOUDY    30  27  86 CALM      30.11R
CLOQUET        CLOUDY    25  21  86 CALM      30.09R
MCGREGOR       CLOUDY    30  27  86 CALM      30.09S
$$
MNZ071>073-080-081-089-090-097-098-271400-
   Southwest Minnesota

CITY           SKY/WX    TMP DP  RH WIND       PRES   REMARKS
MONTEVIDEO     CLOUDY    28  28 100 S6        30.11R WCI  22
GRANITE FALLS  CLOUDY    29  28  96 CALM      30.11R
CANBY          CLOUDY    30  29  99 CALM      30.10R FOG
MARSHALL       CLOUDY    28  27  93 CALM      30.11R VSB 3/4
REDWOOD FALLS  CLOUDY    32  29  88 CALM      30.10R
OLIVIA         CLOUDY    30  28  93 CALM      30.09S
PIPESTONE      FOG       28  28 100 E6        30.06R VSB 1/4 WCI  22
WINDOM         CLOUDY    28  28 100 CALM      30.10R FOG
WORTHINGTON    CLOUDY    28  27  93 E6        30.09R WCI  22
JACKSON        CLOUDY    30  30 100 E5        30.09R WCI  25
TRACY          FOG       30  30  98 SE3       30.10R VSB 1/4
SLAYTON        FOG       28  28  99 CALM      30.09R VSB 1/4
$$
MNZ065>067-074>077-082>085-091>093-271400-
   South Central Minnesota

CITY           SKY/WX    TMP DP  RH WIND       PRES   REMARKS
MANKATO        CLOUDY    34  27  75 NE5       30.10R WCI  30
NEW ULM        CLOUDY    30  28  93 CALM      30.11R
ST JAMES       CLOUDY    32  30  93 CALM      30.12R
FAIRMONT       CLEAR     27  23  86 N3        30.09R
GLENCOE        CLOUDY    33  30  87 CALM      30.10R
FARIBAULT      CLOUDY    34  27  75 N3        30.11R
OWATONNA       CLOUDY    34  27  75 NE5       30.10R WCI  30
WASECA         CLOUDY    32  28  86 NE6       30.11R WCI  26
ALBERT LEA     CLOUDY    34  30  86 NE3       30.09R
$$
MNZ078>079-086>088-094>096-271400-
   Southeast Minnesota

CITY           SKY/WX    TMP DP  RH WIND       PRES   REMARKS
ROCHESTER      CLOUDY    31  27  85 NE8       30.09R WCI  23
RED WING       CLOUDY    32  25  74 NE3       30.12R
STANTON        CLOUDY    34  27  77 NE3       30.10R
DODGE CENTER   CLOUDY    32  28  86 NE7       30.09R WCI  26
WINONA         CLOUDY    30  27  86 E6        30.13R WCI  24
AUSTIN         CLOUDY    34  27  75 N6        30.09R WCI  29
PRESTON        CLOUDY    30  27  89 NE7       30.09R WCI  23
$$
ABBREVIATIONS USED IN REMARKS
   TC - TEMPERATURES IN CELSIUS
  WCI - WIND CHILL INDEX
   HX - HEAT INDEX
  VSB - VISIBILITY
$$


USA.gov is the U.S. government's official web portal to all federal, state and local government web resources and services.